Santa Ana, CA

4:48 AM PDT on April 27, 2017 (GMT -0700)
John Wayne-Orange County

Weather History for KSNA - January, 2014

Change the Weather History Date:

Thursday, January 16, 2014

  Actual Average Record
Temperature  
Mean Temperature 71 °F 57 °F  
Max Temperature 89 °F 67 °F 89 °F (2014)
Min Temperature 52 °F 47 °F 39 °F (2006)
Degree Days  
Heating Degree Days 0 8  
Month to date heating degree days 71 139  
Since 1 July heating degree days 340 571  
Cooling Degree Days 6 0  
Month to date cooling degree days 23 0  
Year to date cooling degree days 23 0  
Growing Degree Days 22 (Base 50)    
Moisture  
Dew Point 12 °F    
Average Humidity 21    
Maximum Humidity 38    
Minimum Humidity 3    
Precipitation  
Precipitation 0.00 in 0.11 in 3.40 in (1952)
Month to date precipitation 0.00 1.87  
Year to date precipitation 0.00 1.87  
Since 1 July precipitation 1.05  
Snow  
Snow 0.00 in - - ()
Month to date snowfall 0.0  
Year to date snowfall 0.0  
Snow Depth 0.00 in    
Sea Level Pressure  
Sea Level Pressure 30.06 in    
Wind  
Wind Speed 5 mph (ENE)    
Max Wind Speed 20 mph    
Max Gust Speed 28 mph    
Visibility 10 miles    
Events      
T = Trace of Precipitation, MM = Missing Value Source: NWS Daily Summary

Daily Weather History Graph

Daily Weather History Graph

Search for Another Location

Airport or City:

Trip Planner

Search our weather history database for the weather conditions in past years. The results will help you decide how hot, cold, wet, or windy it might be!

Date:

Astronomy

Jan. 16, 2014 Rise Set
Actual Time 6:55 AM PST 5:07 PM PST
Civil Twilight 6:28 AM PST 5:34 PM PST
Nautical Twilight 5:58 AM PST 6:04 PM PST
Astronomical Twilight 5:28 AM PST 6:34 PM PST
Moon 5:58 PM PST (1/16) 6:56 AM PST (1/16)
Length of Visible Light 11h 05m
Length of Day
10h 11m
Full, 100% of the Moon is Illuminated
Jan 16
Full
Jan 23
Last Quarter
Jan 30
New
Feb 6
First Quarter
Feb 14
Full

Hourly Weather History & Observations

Time (PST) Temp. Dew Point Humidity Pressure Visibility Wind Dir Wind Speed Gust Speed Precip Events Conditions
12:53 AM 66.9 °F 21.0 °F 17% 30.09 in 10.0 mi South 3.5 mph - N/A   Clear
1:53 AM 59.0 °F 25.0 °F 27% 30.09 in 10.0 mi Calm Calm - N/A   Clear
2:53 AM 57.0 °F 25.0 °F 29% 30.09 in 10.0 mi Calm Calm - N/A   Clear
3:53 AM 55.0 °F 26.1 °F 33% 30.09 in 10.0 mi South 3.5 mph - N/A   Clear
4:53 AM 55.9 °F 28.0 °F 34% 30.08 in 10.0 mi Calm Calm - N/A   Clear
5:53 AM 55.0 °F 30.0 °F 38% 30.08 in 10.0 mi Calm Calm - N/A   Clear
6:53 AM 55.9 °F 30.9 °F 39% 30.09 in 10.0 mi Calm Calm - N/A   Clear
7:53 AM 64.0 °F 26.1 °F 24% 30.10 in 9.0 mi Calm Calm - N/A   Clear
8:53 AM 79.0 °F 12.9 °F 8% 30.12 in 10.0 mi East 3.5 mph - N/A   Clear
9:53 AM 84.0 °F 9.0 °F 6% 30.12 in 10.0 mi NNE 3.5 mph - N/A   Clear
10:53 AM 86.0 °F 6.1 °F 5% 30.10 in 10.0 mi ENE 11.5 mph - N/A   Clear
11:53 AM 88.0 °F 3.0 °F 4% 30.06 in 10.0 mi ENE 10.4 mph 19.6 mph N/A   Clear
12:53 PM 88.0 °F 1.0 °F 4% 30.04 in 10.0 mi ENE 16.1 mph 23.0 mph N/A   Clear
1:53 PM 89.1 °F -0.0 °F 4% 30.02 in 10.0 mi NE 13.8 mph 25.3 mph N/A   Clear
2:53 PM 88.0 °F 1.0 °F 4% 30.02 in 10.0 mi NE 13.8 mph 20.7 mph N/A   Clear
3:53 PM 87.1 °F 1.9 °F 4% 30.02 in 10.0 mi NE 12.7 mph - N/A   Clear
4:53 PM 84.0 °F 3.9 °F 5% 30.02 in 10.0 mi ENE 8.1 mph - N/A   Clear
5:53 PM 80.1 °F 3.9 °F 5% 30.03 in 10.0 mi ENE 5.8 mph - N/A   Clear
6:53 PM 78.1 °F 5.0 °F 6% 30.04 in 10.0 mi NE 5.8 mph - N/A   Clear
7:53 PM 77.0 °F 3.0 °F 6% 30.04 in 10.0 mi Variable 4.6 mph - N/A   Clear
8:53 PM 73.0 °F 8.1 °F 8% 30.06 in 10.0 mi Calm Calm - N/A   Clear
9:53 PM 73.0 °F 7.0 °F 8% 30.06 in 10.0 mi ESE 5.8 mph - N/A   Clear
10:53 PM 73.0 °F 3.9 °F 7% 30.04 in 10.0 mi NE 6.9 mph - N/A   Clear
11:53 PM 66.0 °F 9.0 °F 11% 30.05 in 10.0 mi Calm Calm - N/A   Clear